Year,Month,Day,Hour,Minute,Value (Times are PST for windgust in km/hr)
2011,01,14,00,00,16.10
2011,01,14,00,01,16.10
2011,01,14,00,02,11.30
2011,01,14,00,03,6.40
2011,01,14,00,04,9.60
2011,01,14,00,05,9.60
2011,01,14,00,06,14.50
2011,01,14,00,07,19.30
2011,01,14,00,08,19.30
2011,01,14,00,09,11.30
2011,01,14,00,10,11.30
2011,01,14,00,11,11.30
2011,01,14,00,12,14.50
2011,01,14,00,13,19.30
2011,01,14,00,14,11.30
2011,01,14,00,15,11.30
2011,01,14,00,16,4.80
2011,01,14,00,17,6.40
2011,01,14,00,18,3.20
2011,01,14,00,19,9.60
2011,01,14,00,20,6.40
2011,01,14,00,21,4.80
2011,01,14,00,22,12.90
2011,01,14,00,23,11.30
2011,01,14,00,24,8.10
2011,01,14,00,25,11.30
2011,01,14,00,26,6.40
2011,01,14,00,27,4.80
2011,01,14,00,28,4.80
2011,01,14,00,29,3.20
2011,01,14,00,30,8.10
2011,01,14,00,31,3.20
2011,01,14,00,32,4.80
2011,01,14,00,33,8.10
2011,01,14,00,34,14.50
2011,01,14,00,35,9.60
2011,01,14,00,36,20.90
2011,01,14,00,37,17.70
2011,01,14,00,38,11.30
2011,01,14,00,39,8.10
2011,01,14,00,40,16.10
2011,01,14,00,41,9.60
2011,01,14,00,42,8.10
2011,01,14,00,43,20.90
2011,01,14,00,44,20.90
2011,01,14,00,45,12.90
2011,01,14,00,46,11.30
2011,01,14,00,47,14.50
2011,01,14,00,48,16.10
2011,01,14,00,49,20.90
2011,01,14,00,50,12.90
2011,01,14,00,51,14.50
2011,01,14,00,52,22.50
2011,01,14,00,53,8.10
2011,01,14,00,54,14.50
2011,01,14,00,55,14.50
2011,01,14,00,56,17.70
2011,01,14,00,57,19.30
2011,01,14,00,58,19.30
2011,01,14,00,59,20.90
2011,01,14,01,00,14.50
2011,01,14,01,01,14.50
2011,01,14,01,02,12.90
2011,01,14,01,03,20.90
2011,01,14,01,04,25.70
2011,01,14,01,05,22.50
2011,01,14,01,06,24.20
2011,01,14,01,07,25.70
2011,01,14,01,08,20.90
2011,01,14,01,09,25.70
2011,01,14,01,10,12.90
2011,01,14,01,11,17.70
2011,01,14,01,12,16.10
2011,01,14,01,13,14.50
2011,01,14,01,14,16.10
2011,01,14,01,15,9.60
2011,01,14,01,16,16.10
2011,01,14,01,17,11.30
2011,01,14,01,18,14.50
2011,01,14,01,19,27.40
2011,01,14,01,20,17.70
2011,01,14,01,21,14.50
2011,01,14,01,22,14.50
2011,01,14,01,23,19.30
2011,01,14,01,24,16.10
2011,01,14,01,25,19.30
2011,01,14,01,26,25.70
2011,01,14,01,27,20.90
2011,01,14,01,28,27.40
2011,01,14,01,29,24.20
2011,01,14,01,30,14.50
2011,01,14,01,31,19.30
2011,01,14,01,32,22.50
2011,01,14,01,33,20.90
2011,01,14,01,34,22.50
2011,01,14,01,35,25.70
2011,01,14,01,36,22.50
2011,01,14,01,37,33.80
2011,01,14,01,38,32.20
2011,01,14,01,39,24.20
2011,01,14,01,40,25.70
2011,01,14,01,41,29.00
2011,01,14,01,42,25.70
2011,01,14,01,43,30.60
2011,01,14,01,44,33.80
2011,01,14,01,45,22.50
2011,01,14,01,46,20.90
2011,01,14,01,47,20.90
2011,01,14,01,48,25.70
2011,01,14,01,49,24.20
2011,01,14,01,50,17.70
2011,01,14,01,51,17.70
2011,01,14,01,52,22.50
2011,01,14,01,53,17.70
2011,01,14,01,54,17.70
2011,01,14,01,55,16.10
2011,01,14,01,56,19.30
2011,01,14,01,57,27.40
2011,01,14,01,58,17.70
2011,01,14,01,59,22.50
2011,01,14,02,00,20.90
2011,01,14,02,01,14.50
2011,01,14,02,02,17.70
2011,01,14,02,03,17.70
2011,01,14,02,04,14.50
2011,01,14,02,05,22.50
2011,01,14,02,06,19.30
2011,01,14,02,07,14.50
2011,01,14,02,08,19.30
2011,01,14,02,09,20.90
2011,01,14,02,10,20.90
2011,01,14,02,11,19.30
2011,01,14,02,12,25.70
2011,01,14,02,13,29.00
2011,01,14,02,14,17.70
2011,01,14,02,15,8.10
2011,01,14,02,16,12.90
2011,01,14,02,17,14.50
2011,01,14,02,18,16.10
2011,01,14,02,19,22.50
2011,01,14,02,20,17.70
2011,01,14,02,21,16.10
2011,01,14,02,22,11.30
2011,01,14,02,23,11.30
2011,01,14,02,24,20.90
2011,01,14,02,25,19.30
2011,01,14,02,26,19.30
2011,01,14,02,27,9.60
2011,01,14,02,28,17.70
2011,01,14,02,29,17.70
2011,01,14,02,30,16.10
2011,01,14,02,31,22.50
2011,01,14,02,32,17.70
2011,01,14,02,33,12.90
2011,01,14,02,34,11.30
2011,01,14,02,35,9.60
2011,01,14,02,36,14.50
2011,01,14,02,37,20.90
2011,01,14,02,38,19.30
2011,01,14,02,39,12.90
2011,01,14,02,40,11.30
2011,01,14,02,41,6.40
2011,01,14,02,42,9.60
2011,01,14,02,43,4.80
2011,01,14,02,44,6.40
2011,01,14,02,45,8.10
2011,01,14,02,46,6.40
2011,01,14,02,47,8.10
2011,01,14,02,48,4.80
2011,01,14,02,49,6.40
2011,01,14,02,50,8.10
2011,01,14,02,51,8.10
2011,01,14,02,52,9.60
2011,01,14,02,53,14.50
2011,01,14,02,54,11.30
2011,01,14,02,55,9.60
2011,01,14,02,56,12.90
2011,01,14,02,57,22.50
2011,01,14,02,58,19.30
2011,01,14,02,59,6.40
2011,01,14,03,00,8.10
2011,01,14,03,01,11.30
2011,01,14,03,02,8.10
2011,01,14,03,03,6.40
2011,01,14,03,04,11.30
2011,01,14,03,05,4.80
2011,01,14,03,06,6.40
2011,01,14,03,07,9.60
2011,01,14,03,08,4.80
2011,01,14,03,09,8.10
2011,01,14,03,10,6.40
2011,01,14,03,11,4.80
2011,01,14,03,12,6.40
2011,01,14,03,13,4.80
2011,01,14,03,14,3.20
2011,01,14,03,15,1.60
2011,01,14,03,16,3.20
2011,01,14,03,17,3.20
2011,01,14,03,18,1.60
2011,01,14,03,19,1.60
2011,01,14,03,21,4.80
2011,01,14,03,23,1.60
2011,01,14,03,24,4.80
2011,01,14,03,25,1.60
2011,01,14,03,26,1.60
2011,01,14,03,27,3.20
2011,01,14,03,29,3.20
2011,01,14,03,30,3.20
2011,01,14,03,31,1.60
2011,01,14,03,32,9.60
2011,01,14,03,33,9.60
2011,01,14,03,34,3.20
2011,01,14,03,35,3.20
2011,01,14,03,36,1.60
2011,01,14,03,37,1.60
2011,01,14,03,39,3.20
2011,01,14,03,40,1.60
2011,01,14,03,44,3.20
2011,01,14,04,06,1.60
2011,01,14,04,07,3.20
2011,01,14,04,10,3.20
2011,01,14,04,11,6.40
2011,01,14,04,12,1.60
2011,01,14,04,14,1.60
2011,01,14,04,15,3.20
2011,01,14,04,22,1.60
2011,01,14,04,23,3.20
2011,01,14,04,24,1.60
2011,01,14,04,25,3.20
2011,01,14,04,26,1.60
2011,01,14,04,27,3.20
2011,01,14,04,28,1.60
2011,01,14,04,29,3.20
2011,01,14,04,30,4.80
2011,01,14,04,31,6.40
2011,01,14,04,32,3.20
2011,01,14,04,33,3.20
2011,01,14,04,34,3.20
2011,01,14,04,36,3.20
2011,01,14,04,37,4.80
2011,01,14,04,38,4.80
2011,01,14,04,40,3.20
2011,01,14,04,41,3.20
2011,01,14,04,42,4.80
2011,01,14,04,43,3.20
2011,01,14,04,44,3.20
2011,01,14,04,45,1.60
2011,01,14,04,46,3.20
2011,01,14,04,47,1.60
2011,01,14,04,48,3.20
2011,01,14,04,49,3.20
2011,01,14,04,50,3.20
2011,01,14,04,51,1.60
2011,01,14,04,52,1.60
2011,01,14,04,53,1.60
2011,01,14,04,54,3.20
2011,01,14,04,55,4.80
2011,01,14,04,56,3.20
2011,01,14,04,58,3.20
2011,01,14,04,59,1.60
2011,01,14,05,00,3.20
2011,01,14,05,02,1.60
2011,01,14,05,03,3.20
2011,01,14,05,04,1.60
2011,01,14,05,05,3.20
2011,01,14,05,06,3.20
2011,01,14,05,08,1.60
2011,01,14,05,09,1.60
2011,01,14,05,10,1.60
2011,01,14,05,11,4.80
2011,01,14,05,12,3.20
2011,01,14,05,13,1.60
2011,01,14,05,14,3.20
2011,01,14,05,15,8.10
2011,01,14,05,16,6.40
2011,01,14,05,17,6.40
2011,01,14,05,18,6.40
2011,01,14,05,19,6.40
2011,01,14,05,20,6.40
2011,01,14,05,21,8.10
2011,01,14,05,22,8.10
2011,01,14,05,23,6.40
2011,01,14,05,24,9.60
2011,01,14,05,25,6.40
2011,01,14,05,26,4.80
2011,01,14,05,27,6.40
2011,01,14,05,28,6.40
2011,01,14,05,29,6.40
2011,01,14,05,30,6.40
2011,01,14,05,31,6.40
2011,01,14,05,32,3.20
2011,01,14,05,33,1.60
2011,01,14,05,37,3.20
2011,01,14,05,38,4.80
2011,01,14,05,39,3.20
2011,01,14,05,40,4.80
2011,01,14,05,41,4.80
2011,01,14,05,42,3.20
2011,01,14,05,43,6.40
2011,01,14,05,44,6.40
2011,01,14,05,45,6.40
2011,01,14,05,46,4.80
2011,01,14,05,47,1.60
2011,01,14,05,48,4.80
2011,01,14,05,49,4.80
2011,01,14,05,50,3.20
2011,01,14,05,51,3.20
2011,01,14,05,55,1.60
2011,01,14,05,57,1.60
2011,01,14,05,58,8.10
2011,01,14,05,59,4.80
2011,01,14,06,00,4.80
2011,01,14,06,01,1.60
2011,01,14,06,05,1.60
2011,01,14,06,06,1.60
2011,01,14,06,12,1.60
2011,01,14,06,13,4.80
2011,01,14,06,14,4.80
2011,01,14,06,15,3.20
2011,01,14,06,16,1.60
2011,01,14,06,17,1.60
2011,01,14,06,21,3.20
2011,01,14,06,22,3.20
2011,01,14,06,23,3.20
2011,01,14,06,24,3.20
2011,01,14,06,26,1.60
2011,01,14,06,27,3.20
2011,01,14,06,28,4.80
2011,01,14,06,29,6.40
2011,01,14,06,30,4.80
2011,01,14,06,32,3.20
2011,01,14,06,33,3.20
2011,01,14,06,34,1.60
2011,01,14,06,35,3.20
2011,01,14,06,36,3.20
2011,01,14,06,37,3.20
2011,01,14,06,38,3.20
2011,01,14,06,39,1.60
2011,01,14,06,40,1.60
2011,01,14,06,41,1.60
2011,01,14,06,42,1.60
2011,01,14,06,47,6.40
2011,01,14,06,48,4.80
2011,01,14,06,49,4.80
2011,01,14,06,50,4.80
2011,01,14,06,51,3.20
2011,01,14,07,04,3.20
2011,01,14,07,05,1.60
2011,01,14,07,07,3.20
2011,01,14,07,08,1.60
2011,01,14,07,09,1.60
2011,01,14,07,12,1.60
2011,01,14,07,13,1.60
2011,01,14,07,17,1.60
2011,01,14,07,18,1.60
2011,01,14,07,19,3.20
2011,01,14,07,20,1.60
2011,01,14,07,21,1.60
2011,01,14,07,23,4.80
2011,01,14,07,24,4.80
2011,01,14,07,25,6.40
2011,01,14,07,26,4.80
2011,01,14,07,27,6.40
2011,01,14,07,28,4.80
2011,01,14,07,29,3.20
2011,01,14,07,30,3.20
2011,01,14,07,31,6.40
2011,01,14,07,32,4.80
2011,01,14,07,33,3.20
2011,01,14,07,34,4.80
2011,01,14,07,35,4.80
2011,01,14,07,36,4.80
2011,01,14,07,37,6.40
2011,01,14,07,38,1.60
2011,01,14,07,39,1.60
2011,01,14,07,40,1.60
2011,01,14,07,45,3.20
2011,01,14,07,46,4.80
2011,01,14,07,47,4.80
2011,01,14,07,48,3.20
2011,01,14,07,52,1.60
2011,01,14,07,55,3.20
2011,01,14,07,56,3.20
2011,01,14,07,57,3.20
2011,01,14,07,58,3.20
2011,01,14,07,59,1.60
2011,01,14,08,11,1.60
2011,01,14,08,12,1.60
2011,01,14,08,14,3.20
2011,01,14,08,15,4.80
2011,01,14,08,16,1.60
2011,01,14,08,17,1.60
2011,01,14,08,25,1.60
2011,01,14,08,26,3.20
2011,01,14,08,27,3.20
2011,01,14,08,28,1.60
2011,01,14,08,29,6.40
2011,01,14,08,30,6.40
2011,01,14,08,31,4.80
2011,01,14,08,32,1.60
2011,01,14,08,35,1.60
2011,01,14,08,36,6.40
2011,01,14,08,37,6.40
2011,01,14,08,38,3.20
2011,01,14,08,40,1.60
2011,01,14,08,41,3.20
2011,01,14,08,42,3.20
2011,01,14,08,43,1.60
2011,01,14,08,50,3.20
2011,01,14,08,51,4.80
2011,01,14,08,52,3.20
2011,01,14,08,58,1.60
2011,01,14,09,00,1.60
2011,01,14,09,01,1.60
2011,01,14,09,02,1.60
2011,01,14,09,03,1.60
2011,01,14,09,04,1.60
2011,01,14,09,24,1.60
2011,01,14,09,41,1.60
2011,01,14,09,45,1.60
2011,01,14,09,46,3.20
2011,01,14,09,47,3.20
2011,01,14,09,51,1.60
2011,01,14,09,52,1.60
2011,01,14,09,53,1.60
2011,01,14,09,54,3.20
2011,01,14,09,55,3.20
2011,01,14,10,07,1.60
2011,01,14,10,08,3.20
2011,01,14,10,09,3.20
2011,01,14,10,12,1.60
2011,01,14,10,31,3.20
2011,01,14,10,32,3.20
2011,01,14,10,33,1.60
2011,01,14,10,38,1.60
2011,01,14,10,39,3.20
2011,01,14,10,40,1.60
2011,01,14,10,49,1.60
2011,01,14,10,50,1.60
2011,01,14,10,56,1.60
2011,01,14,11,01,1.60
2011,01,14,11,02,1.60
2011,01,14,11,03,1.60
2011,01,14,11,04,1.60
2011,01,14,11,07,4.80
2011,01,14,11,08,4.80
2011,01,14,11,09,1.60
2011,01,14,11,10,1.60
2011,01,14,11,11,3.20
2011,01,14,11,12,3.20
2011,01,14,11,13,3.20
2011,01,14,11,14,3.20
2011,01,14,11,16,1.60
2011,01,14,11,17,4.80
2011,01,14,11,18,3.20
2011,01,14,11,19,4.80
2011,01,14,11,20,6.40
2011,01,14,11,21,4.80
2011,01,14,11,22,4.80
2011,01,14,11,23,4.80
2011,01,14,11,24,3.20
2011,01,14,11,25,1.60
2011,01,14,11,26,1.60
2011,01,14,11,27,3.20
2011,01,14,11,28,4.80
2011,01,14,11,30,6.40
2011,01,14,11,31,3.20
2011,01,14,11,32,6.40
2011,01,14,11,33,4.80
2011,01,14,11,34,4.80
2011,01,14,11,35,3.20
2011,01,14,11,36,1.60
2011,01,14,11,37,3.20
2011,01,14,11,38,3.20
2011,01,14,11,39,1.60
2011,01,14,11,41,1.60
2011,01,14,11,42,6.40
2011,01,14,11,43,4.80
2011,01,14,11,44,6.40
2011,01,14,11,45,4.80
2011,01,14,11,46,4.80
2011,01,14,11,47,6.40
2011,01,14,11,48,6.40
2011,01,14,11,49,1.60
2011,01,14,11,50,3.20
2011,01,14,11,51,4.80
2011,01,14,11,52,8.10
2011,01,14,11,53,6.40
2011,01,14,11,54,4.80
2011,01,14,11,55,6.40
2011,01,14,11,56,11.30
2011,01,14,11,57,20.90
2011,01,14,11,58,16.10
2011,01,14,11,59,16.10
2011,01,14,12,00,9.60
2011,01,14,12,01,8.10
2011,01,14,12,02,24.20
2011,01,14,12,03,22.50
2011,01,14,12,04,20.90
2011,01,14,12,05,12.90
2011,01,14,12,06,20.90
2011,01,14,12,07,17.70
2011,01,14,12,08,17.70
2011,01,14,12,09,14.50
2011,01,14,12,10,9.60
2011,01,14,12,11,8.10
2011,01,14,12,12,9.60
2011,01,14,12,13,11.30
2011,01,14,12,14,11.30
2011,01,14,12,15,12.90
2011,01,14,12,16,16.10
2011,01,14,12,17,6.40
2011,01,14,12,18,19.30
2011,01,14,12,19,19.30
2011,01,14,12,20,17.70
2011,01,14,12,21,12.90
2011,01,14,12,22,22.50
2011,01,14,12,23,32.20
2011,01,14,12,24,11.30
2011,01,14,12,25,22.50
2011,01,14,12,26,17.70
2011,01,14,12,27,30.60
2011,01,14,12,28,14.50
2011,01,14,12,29,20.90
2011,01,14,12,30,29.00
2011,01,14,12,31,20.90
2011,01,14,12,32,24.20
2011,01,14,12,33,24.20
2011,01,14,12,34,22.50
2011,01,14,12,35,24.20
2011,01,14,12,36,9.60
2011,01,14,12,37,19.30
2011,01,14,12,38,14.50
2011,01,14,12,39,14.50
2011,01,14,12,40,24.20
2011,01,14,12,41,27.40
2011,01,14,12,42,17.70
2011,01,14,12,43,17.70
2011,01,14,12,44,16.10
2011,01,14,12,45,17.70
2011,01,14,12,46,11.30
2011,01,14,12,47,17.70
2011,01,14,12,48,16.10
2011,01,14,12,49,25.70
2011,01,14,12,50,35.40
2011,01,14,12,51,16.10
2011,01,14,12,52,12.90
2011,01,14,12,53,20.90
2011,01,14,12,54,27.40
2011,01,14,12,55,33.80
2011,01,14,12,56,33.80
2011,01,14,12,57,30.60
2011,01,14,12,58,32.20
2011,01,14,12,59,22.50
2011,01,14,13,00,17.70
2011,01,14,13,01,25.70
2011,01,14,13,02,24.20
2011,01,14,13,03,17.70
2011,01,14,13,04,29.00
2011,01,14,13,05,27.40
2011,01,14,13,06,19.30
2011,01,14,13,07,16.10
2011,01,14,13,08,11.30
2011,01,14,13,09,20.90
2011,01,14,13,10,24.20
2011,01,14,13,11,20.90
2011,01,14,13,12,22.50
2011,01,14,13,13,22.50
2011,01,14,13,14,17.70
2011,01,14,13,15,17.70
2011,01,14,13,16,20.90
2011,01,14,13,17,24.20
2011,01,14,13,18,32.20
2011,01,14,13,19,22.50
2011,01,14,13,20,25.70
2011,01,14,13,21,25.70
2011,01,14,13,22,17.70
2011,01,14,13,23,30.60
2011,01,14,13,24,20.90
2011,01,14,13,25,32.20
2011,01,14,13,26,30.60
2011,01,14,13,27,35.40
2011,01,14,13,28,24.20
2011,01,14,13,29,20.90
2011,01,14,13,30,24.20
2011,01,14,13,31,22.50
2011,01,14,13,32,30.60
2011,01,14,13,33,27.40
2011,01,14,13,34,17.70
2011,01,14,13,35,25.70
2011,01,14,13,36,37.00
2011,01,14,13,37,35.40
2011,01,14,13,38,29.00
2011,01,14,13,39,25.70
2011,01,14,13,40,22.50
2011,01,14,13,41,20.90
2011,01,14,13,42,38.60
2011,01,14,13,43,19.30
2011,01,14,13,44,27.40
2011,01,14,13,45,20.90
2011,01,14,13,46,16.10
2011,01,14,13,47,41.80
2011,01,14,13,48,37.00
2011,01,14,13,49,17.70
2011,01,14,13,50,9.60
2011,01,14,13,51,16.10
2011,01,14,13,52,16.10
2011,01,14,13,53,16.10
2011,01,14,13,54,32.20
2011,01,14,13,55,40.20
2011,01,14,13,56,17.70
2011,01,14,13,57,16.10
2011,01,14,13,58,24.20
2011,01,14,13,59,25.70
2011,01,14,14,00,22.50
2011,01,14,14,01,27.40
2011,01,14,14,02,16.10
2011,01,14,14,03,22.50
2011,01,14,14,04,29.00
2011,01,14,14,05,40.20
2011,01,14,14,06,32.20
2011,01,14,14,07,20.90
2011,01,14,14,08,37.00
2011,01,14,14,09,25.70
2011,01,14,14,10,11.30
2011,01,14,14,11,19.30
2011,01,14,14,12,14.50
2011,01,14,14,13,17.70
2011,01,14,14,14,17.70
2011,01,14,14,15,35.40
2011,01,14,14,16,45.10
2011,01,14,14,17,19.30
2011,01,14,14,18,35.40
2011,01,14,14,19,25.70
2011,01,14,14,20,22.50
2011,01,14,14,21,35.40
2011,01,14,14,22,19.30
2011,01,14,14,23,19.30
2011,01,14,14,24,17.70
2011,01,14,14,25,27.40
2011,01,14,14,26,27.40
2011,01,14,14,27,19.30
2011,01,14,14,28,19.30
2011,01,14,14,29,25.70
2011,01,14,14,30,29.00
2011,01,14,14,31,17.70
2011,01,14,14,32,37.00
2011,01,14,14,33,29.00
2011,01,14,14,34,27.40
2011,01,14,14,35,38.60
2011,01,14,14,36,33.80
2011,01,14,14,37,37.00
2011,01,14,14,38,45.10
2011,01,14,14,39,27.40
2011,01,14,14,40,20.90
2011,01,14,14,41,43.50
2011,01,14,14,42,33.80
2011,01,14,14,43,40.20
2011,01,14,14,44,48.30
2011,01,14,14,45,40.20
2011,01,14,14,46,30.60
2011,01,14,14,47,37.00
2011,01,14,14,48,41.80
2011,01,14,14,49,37.00
2011,01,14,14,50,32.20
2011,01,14,14,51,37.00
2011,01,14,14,52,51.50
2011,01,14,14,53,40.20
2011,01,14,14,54,48.30
2011,01,14,14,55,45.10
2011,01,14,14,56,37.00
2011,01,14,14,57,51.50
2011,01,14,14,58,25.70
2011,01,14,14,59,43.50
2011,01,14,15,00,38.60
2011,01,14,15,01,41.80
2011,01,14,15,02,43.50
2011,01,14,15,03,41.80
2011,01,14,15,04,40.20
2011,01,14,15,05,49.90
2011,01,14,15,06,33.80
2011,01,14,15,07,29.00
2011,01,14,15,08,29.00
2011,01,14,15,09,41.80
2011,01,14,15,10,45.10
2011,01,14,15,11,45.10
2011,01,14,15,12,49.90
2011,01,14,15,13,29.00
2011,01,14,15,14,53.10
2011,01,14,15,15,35.40
2011,01,14,15,16,35.40
2011,01,14,15,17,40.20
2011,01,14,15,18,38.60
2011,01,14,15,19,38.60
2011,01,14,15,20,30.60
2011,01,14,15,21,30.60
2011,01,14,15,22,27.40
2011,01,14,15,23,37.00
2011,01,14,15,24,27.40
2011,01,14,15,25,43.50
2011,01,14,15,26,37.00
2011,01,14,15,27,48.30
2011,01,14,15,28,27.40
2011,01,14,15,29,57.90
2011,01,14,15,30,24.20
2011,01,14,15,31,37.00
2011,01,14,15,32,41.80
2011,01,14,15,33,17.70
2011,01,14,15,34,16.10
2011,01,14,15,35,30.60
2011,01,14,15,36,40.20
2011,01,14,15,37,20.90
2011,01,14,15,38,32.20
2011,01,14,15,39,19.30
2011,01,14,15,40,33.80
2011,01,14,15,41,30.60
2011,01,14,15,42,40.20
2011,01,14,15,43,27.40
2011,01,14,15,44,33.80
2011,01,14,15,45,20.90
2011,01,14,15,46,32.20
2011,01,14,15,47,53.10
2011,01,14,15,48,30.60
2011,01,14,15,49,37.00
2011,01,14,15,50,22.50
2011,01,14,15,51,29.00
2011,01,14,15,52,24.20
2011,01,14,15,53,25.70
2011,01,14,15,54,25.70
2011,01,14,15,55,40.20
2011,01,14,15,56,43.50
2011,01,14,15,57,41.80
2011,01,14,15,58,30.60
2011,01,14,15,59,25.70
2011,01,14,16,00,29.00
2011,01,14,16,01,38.60
2011,01,14,16,02,17.70
2011,01,14,16,03,35.40
2011,01,14,16,04,25.70
2011,01,14,16,05,30.60
2011,01,14,16,06,72.40
2011,01,14,16,07,53.10
2011,01,14,16,08,51.50
2011,01,14,16,09,48.30
2011,01,14,16,10,27.40
2011,01,14,16,11,27.40
2011,01,14,16,12,25.70
2011,01,14,16,13,30.60
2011,01,14,16,14,22.50
2011,01,14,16,15,45.10
2011,01,14,16,16,9.60
2011,01,14,16,17,30.60
2011,01,14,16,18,40.20
2011,01,14,16,19,41.80
2011,01,14,16,20,16.10
2011,01,14,16,21,25.70
2011,01,14,16,22,27.40
2011,01,14,16,23,27.40
2011,01,14,16,24,8.10
2011,01,14,16,25,30.60
2011,01,14,16,26,38.60
2011,01,14,16,27,25.70
2011,01,14,16,28,8.10
2011,01,14,16,29,30.60
2011,01,14,16,30,19.30
2011,01,14,16,31,20.90
2011,01,14,16,32,4.80
2011,01,14,16,33,16.10
2011,01,14,16,34,29.00
2011,01,14,16,35,32.20
2011,01,14,16,36,9.60
2011,01,14,16,37,22.50
2011,01,14,16,38,9.60
2011,01,14,16,39,19.30
2011,01,14,16,40,8.10
2011,01,14,16,41,11.30
2011,01,14,16,42,22.50
2011,01,14,16,43,8.10
2011,01,14,16,44,16.10
2011,01,14,16,45,19.30
2011,01,14,16,46,14.50
2011,01,14,16,47,6.40
2011,01,14,16,48,14.50
2011,01,14,16,49,8.10
2011,01,14,16,50,30.60
2011,01,14,16,51,16.10
2011,01,14,16,52,8.10
2011,01,14,16,53,14.50
2011,01,14,16,54,20.90
2011,01,14,16,55,19.30
2011,01,14,16,56,4.80
2011,01,14,16,57,8.10
2011,01,14,16,58,11.30
2011,01,14,16,59,6.40
2011,01,14,17,00,9.60
2011,01,14,17,01,19.30
2011,01,14,17,02,9.60
2011,01,14,17,03,27.40
2011,01,14,17,04,32.20
2011,01,14,17,05,8.10
2011,01,14,17,06,16.10
2011,01,14,17,07,19.30
2011,01,14,17,08,16.10
2011,01,14,17,09,19.30
2011,01,14,17,10,24.20
2011,01,14,17,11,16.10
2011,01,14,17,12,9.60
2011,01,14,17,13,11.30
2011,01,14,17,14,9.60
2011,01,14,17,15,9.60
2011,01,14,17,16,8.10
2011,01,14,17,17,30.60
2011,01,14,17,18,17.70
2011,01,14,17,19,6.40
2011,01,14,17,20,8.10
2011,01,14,17,21,9.60
2011,01,14,17,22,9.60
2011,01,14,17,23,8.10
2011,01,14,17,24,9.60
2011,01,14,17,25,27.40
2011,01,14,17,26,20.90
2011,01,14,17,27,9.60
2011,01,14,17,28,14.50
2011,01,14,17,29,8.10
2011,01,14,17,30,9.60
2011,01,14,17,31,14.50
2011,01,14,17,32,16.10
2011,01,14,17,33,14.50
2011,01,14,17,34,6.40
2011,01,14,17,35,24.20
2011,01,14,17,36,8.10
2011,01,14,17,37,4.80
2011,01,14,17,38,6.40
2011,01,14,17,39,8.10
2011,01,14,17,40,6.40
2011,01,14,17,41,11.30
2011,01,14,17,42,14.50
2011,01,14,17,43,11.30
2011,01,14,17,44,8.10
2011,01,14,17,45,4.80
2011,01,14,17,46,16.10
2011,01,14,17,47,24.20
2011,01,14,17,48,6.40
2011,01,14,17,49,19.30
2011,01,14,17,50,16.10
2011,01,14,17,51,16.10
2011,01,14,17,52,6.40
2011,01,14,17,53,6.40
2011,01,14,17,54,8.10
2011,01,14,17,55,19.30
2011,01,14,17,56,14.50
2011,01,14,17,57,6.40
2011,01,14,17,58,8.10
2011,01,14,17,59,4.80
2011,01,14,18,00,6.40
2011,01,14,18,01,6.40
2011,01,14,18,02,3.20
2011,01,14,18,03,8.10
2011,01,14,18,04,3.20
2011,01,14,18,05,19.30
2011,01,14,18,06,22.50
2011,01,14,18,07,22.50
2011,01,14,18,08,14.50
2011,01,14,18,09,14.50
2011,01,14,18,10,14.50
2011,01,14,18,11,19.30
2011,01,14,18,12,11.30
2011,01,14,18,13,6.40
2011,01,14,18,14,24.20
2011,01,14,18,15,11.30
2011,01,14,18,16,4.80
2011,01,14,18,17,8.10
2011,01,14,18,18,11.30
2011,01,14,18,19,14.50
2011,01,14,18,20,20.90
2011,01,14,18,21,8.10
2011,01,14,18,22,3.20
2011,01,14,18,23,25.70
2011,01,14,18,24,12.90
2011,01,14,18,25,14.50
2011,01,14,18,26,8.10
2011,01,14,18,27,8.10
2011,01,14,18,28,14.50
2011,01,14,18,29,11.30
2011,01,14,18,30,14.50
2011,01,14,18,31,14.50
2011,01,14,18,32,9.60
2011,01,14,18,33,11.30
2011,01,14,18,34,14.50
2011,01,14,18,35,6.40
2011,01,14,18,36,3.20
2011,01,14,18,37,4.80
2011,01,14,18,38,11.30
2011,01,14,18,39,4.80
2011,01,14,18,40,11.30
2011,01,14,18,41,9.60
2011,01,14,18,42,25.70
2011,01,14,18,43,29.00
2011,01,14,18,44,14.50
2011,01,14,18,45,6.40
2011,01,14,18,46,22.50
2011,01,14,18,47,11.30
2011,01,14,18,48,4.80
2011,01,14,18,49,4.80
2011,01,14,18,50,8.10
2011,01,14,18,51,6.40
2011,01,14,18,52,11.30
2011,01,14,18,53,9.60
2011,01,14,18,54,11.30
2011,01,14,18,55,17.70
2011,01,14,18,56,9.60
2011,01,14,18,57,11.30
2011,01,14,18,58,19.30
2011,01,14,18,59,17.70
2011,01,14,19,00,9.60
2011,01,14,19,01,1.60
2011,01,14,19,02,6.40
2011,01,14,19,03,12.90
2011,01,14,19,04,9.60
2011,01,14,19,05,11.30
2011,01,14,19,06,9.60
2011,01,14,19,07,9.60
2011,01,14,19,08,19.30
2011,01,14,19,09,6.40
2011,01,14,19,10,6.40
2011,01,14,19,11,4.80
2011,01,14,19,12,8.10
2011,01,14,19,13,4.80
2011,01,14,19,14,20.90
2011,01,14,19,15,1.60
2011,01,14,19,16,19.30
2011,01,14,19,17,16.10
2011,01,14,19,18,4.80
2011,01,14,19,19,4.80
2011,01,14,19,20,6.40
2011,01,14,19,21,12.90
2011,01,14,19,22,9.60
2011,01,14,19,23,9.60
2011,01,14,19,24,19.30
2011,01,14,19,25,20.90
2011,01,14,19,26,9.60
2011,01,14,19,27,9.60
2011,01,14,19,28,11.30
2011,01,14,19,29,16.10
2011,01,14,19,30,14.50
2011,01,14,19,31,12.90
2011,01,14,19,32,9.60
2011,01,14,19,33,6.40
2011,01,14,19,34,11.30
2011,01,14,19,35,4.80
2011,01,14,19,36,1.60
2011,01,14,19,37,4.80
2011,01,14,19,38,8.10
2011,01,14,19,39,11.30
2011,01,14,19,40,3.20
2011,01,14,19,41,4.80
2011,01,14,19,42,1.60
2011,01,14,19,43,4.80
2011,01,14,19,44,6.40
2011,01,14,19,45,4.80
2011,01,14,19,46,6.40
2011,01,14,19,47,3.20
2011,01,14,19,48,6.40
2011,01,14,19,49,1.60
2011,01,14,19,50,4.80
2011,01,14,19,51,1.60
2011,01,14,19,52,3.20
2011,01,14,19,53,6.40
2011,01,14,19,54,8.10
2011,01,14,19,55,9.60
2011,01,14,19,56,6.40
2011,01,14,19,57,3.20
2011,01,14,19,58,8.10
2011,01,14,19,59,6.40
2011,01,14,20,00,12.90
2011,01,14,20,01,16.10
2011,01,14,20,02,12.90
2011,01,14,20,03,16.10
2011,01,14,20,04,20.90
2011,01,14,20,05,14.50
2011,01,14,20,06,16.10
2011,01,14,20,07,19.30
2011,01,14,20,08,19.30
2011,01,14,20,09,22.50
2011,01,14,20,10,24.20
2011,01,14,20,11,22.50
2011,01,14,20,12,20.90
2011,01,14,20,13,19.30
2011,01,14,20,14,22.50
2011,01,14,20,15,19.30
2011,01,14,20,16,17.70
2011,01,14,20,17,17.70
2011,01,14,20,18,22.50
2011,01,14,20,19,12.90
2011,01,14,20,20,22.50
2011,01,14,20,21,32.20
2011,01,14,20,22,17.70
2011,01,14,20,23,17.70
2011,01,14,20,24,14.50
2011,01,14,20,25,20.90
2011,01,14,20,26,17.70
2011,01,14,20,27,16.10
2011,01,14,20,28,24.20
2011,01,14,20,29,19.30
2011,01,14,20,30,20.90
2011,01,14,20,31,16.10
2011,01,14,20,32,20.90
2011,01,14,20,33,24.20
2011,01,14,20,34,19.30
2011,01,14,20,35,19.30
2011,01,14,20,36,19.30
2011,01,14,20,37,22.50
2011,01,14,20,38,19.30
2011,01,14,20,39,20.90
2011,01,14,20,40,24.20
2011,01,14,20,41,20.90
2011,01,14,20,42,22.50
2011,01,14,20,43,14.50
2011,01,14,20,44,14.50
2011,01,14,20,45,9.60
2011,01,14,20,46,16.10
2011,01,14,20,47,16.10
2011,01,14,20,48,16.10
2011,01,14,20,49,19.30
2011,01,14,20,50,24.20
2011,01,14,20,51,24.20
2011,01,14,20,52,20.90
2011,01,14,20,53,9.60
2011,01,14,20,54,11.30
2011,01,14,20,55,12.90
2011,01,14,20,56,17.70
2011,01,14,20,57,16.10
2011,01,14,20,58,24.20
2011,01,14,20,59,17.70
2011,01,14,21,00,12.90
2011,01,14,21,01,11.30
2011,01,14,21,02,14.50
2011,01,14,21,03,14.50
2011,01,14,21,04,17.70
2011,01,14,21,05,19.30
2011,01,14,21,06,11.30
2011,01,14,21,07,9.60
2011,01,14,21,08,16.10
2011,01,14,21,09,8.10
2011,01,14,21,10,16.10
2011,01,14,21,11,12.90
2011,01,14,21,12,11.30
2011,01,14,21,13,17.70
2011,01,14,21,14,11.30
2011,01,14,21,15,12.90
2011,01,14,21,16,14.50
2011,01,14,21,17,17.70
2011,01,14,21,18,14.50
2011,01,14,21,19,9.60
2011,01,14,21,20,6.40
2011,01,14,21,21,1.60
2011,01,14,21,22,9.60
2011,01,14,21,23,4.80
2011,01,14,21,25,1.60
2011,01,14,21,27,11.30
2011,01,14,21,28,1.60